Wind_Speed
21 19 14 6 4 4 7 19 18 8 10 14 20 27 30 36 38 40 38 32 21 17 15 15 22 16 24 23 22 16 14 13 12 15 16 13 7 11 16 21 27 33 37 40 40 33 26 24 22
24 16 11 8 14 3 7 19 17 14 21 23 22 27 31 33 38 40 35 27 13 21 19 13 19 22 16 19 20 16 18 16 11 9 9 3 6 12 17 23 27 32 38 40 41 32 25 20 20
15 13 11 8 8 15 13 12 22 20 21 21 23 28 32 34 38 41 38 26 7 19 21 19 12 19 21 15 16 15 14 17 12 5 3 6 6 9 19 21 27 35 36 43 36 28 21 21 20
15 9 10 11 13 13 12 14 17 16 28 23 24 26 32 34 38 40 36 26 6 14 12 13 15 12 17 8 10 14 16 14 6 7 11 7 7 10 16 22 29 35 38 40 30 25 21 24 25
17 14 11 12 15 9 10 15 17 28 25 21 24 24 31 32 36 37 33 26 4 12 12 14 8 12 16 15 7 9 11 7 10 12 9 10 7 18 18 24 31 31 38 35 25 19 21 24 25
15 15 14 12 6 9 8 15 21 23 17 20 25 26 29 28 33 34 28 25 5 16 8 10 7 17 26 17 14 10 7 11 9 7 4 7 9 15 18 23 30 30 34 27 29 18 24 24 25
14 14 11 11 10 11 10 15 11 14 16 20 21 24 26 26 30 32 28 23 9 7 9 11 10 11 21 12 16 8 1 9 10 7 3 5 11 12 17 23 25 26 27 32 25 23 23 19 16
15 13 12 13 14 13 7 23 19 20 24 22 21 20 22 21 26 30 30 20 10 12 11 8 7 11 12 14 18 10 10 10 6 5 2 4 6 13 18 20 21 22 26 26 31 19 23 17 17
18 20 19 18 15 17 15 12 15 21 26 21 17 22 20 14 19 25 28 18 11 6 16 11 7 12 10 16 18 12 11 13 10 6 5 3 7 8 15 18 18 21 23 21 32 27 22 10 17
25 26 26 25 23 24 21 19 18 23 23 22 22 21 16 11 15 21 24 19 10 8 2 14 12 12 7 17 15 8 6 9 7 5 0 6 6 3 9 16 19 17 18 18 21 19 19 20 18
32 32 32 29 29 26 24 21 17 24 23 22 23 17 12 11 11 16 20 21 13 8 5 8 10 10 15 18 12 6 9 7 2 7 4 5 5 5 15 18 18 13 16 19 7 11 9 14 19
38 38 37 37 33 31 27 29 29 27 27 22 19 15 10 12 9 12 16 17 15 9 7 2 12 10 15 18 14 10 9 9 8 9 5 6 10 7 19 24 13 10 11 14 15 11 9 15 14
43 44 42 42 41 41 39 37 31 28 30 27 22 15 12 14 9 10 12 12 13 8 6 3 8 9 14 23 19 15 9 10 8 11 12 13 14 17 17 19 10 4 12 10 12 5 9 18 17
45 48 46 45 45 45 41 37 34 32 31 32 29 21 19 16 12 11 8 8 10 8 3 6 6 7 8 19 21 19 13 14 10 10 12 19 17 19 17 13 5 4 5 6 3 8 13 15 17
45 48 47 46 47 46 43 40 40 40 36 33 32 26 23 19 12 13 12 8 4 6 5 2 2 5 4 7 13 12 15 6 14 9 14 8 19 16 11 2 4 5 3 6 11 9 14 12 11
33 36 40 40 43 44 44 43 43 40 39 35 29 28 25 19 19 16 17 10 4 4 5 3 4 7 7 5 11 11 12 15 14 16 16 14 14 6 5 6 10 8 8 6 7 7 12 10 12
26 26 29 32 36 36 40 42 43 42 37 37 34 29 29 27 25 21 21 18 8 4 3 3 3 8 7 8 9 10 11 14 17 21 19 16 14 9 5 9 11 10 5 8 8 5 6 10 13
21 20 21 26 30 28 30 35 36 36 40 38 39 35 35 36 29 26 21 21 15 7 5 4 5 7 9 9 7 5 4 2 2 4 10 19 19 14 7 13 16 14 8 14 12 15 14 3 8
12 15 18 20 25 25 23 29 29 34 35 32 39 37 37 32 35 30 25 20 21 14 7 7 9 7 11 9 7 3 2 3 7 9 7 8 20 31 21 18 17 16 11 9 3 3 8 12 12
8 8 11 18 24 24 21 23 29 31 37 41 39 38 37 41 39 38 35 26 21 21 16 9 13 13 14 9 4 5 6 6 6 11 10 10 7 12 17 23 23 17 14 11 11 9 7 1 5
12 14 13 11 11 16 21 20 24 29 31 31 36 42 42 35 31 42 44 34 28 26 20 15 16 19 18 11 11 10 11 13 10 14 11 9 11 10 20 22 29 21 18 15 9 11 15 9 4
15 16 16 15 15 10 12 12 19 25 28 32 32 35 42 45 40 41 36 40 37 32 27 22 20 24 25 19 14 16 10 8 9 10 10 8 7 8 12 23 27 26 21 20 14 11 16 13 10
19 20 19 19 20 17 15 16 12 22 24 27 35 34 39 34 31 26 35 39 41 37 33 28 25 25 28 25 19 16 9 7 7 6 10 9 9 9 6 14 26 28 25 20 18 13 10 11 15
21 22 22 21 22 23 21 21 17 15 20 24 31 38 39 39 39 30 31 38 39 41 39 34 30 31 29 26 21 14 15 8 4 7 8 7 12 9 9 6 15 29 29 26 27 19 15 12 11
24 25 25 23 24 26 25 24 20 18 16 16 29 38 39 32 35 36 31 37 42 44 44 40 38 37 34 26 24 21 20 15 7 9 11 9 12 9 9 7 6 20 30 29 25 27 21 18 11
28 30 28 27 25 27 29 28 24 21 15 17 23 36 39 40 37 37 31 33 39 43 45 46 43 42 40 38 33 28 24 21 18 11 8 8 11 10 6 6 8 3 21 28 26 25 23 22 16
31 32 31 32 30 30 31 31 25 23 19 20 21 27 41 42 39 42 44 43 36 42 44 47 47 46 44 41 37 34 30 27 22 18 16 15 10 12 11 11 9 9 5 14 23 25 28 27 27
37 34 33 34 36 33 34 30 26 22 21 22 23 24 41 43 40 40 41 45 41 40 43 46 50 50 48 45 40 35 33 31 27 23 19 17 16 15 11 11 15 12 7 8 12 14 12 18 30
39 41 36 34 36 32 31 31 28 25 22 21 22 20 26 39 38 35 34 36 42 42 41 45 48 52 49 48 44 38 36 32 30 28 26 23 20 18 16 13 13 17 14 19 16 11 16 16 18
40 38 37 37 37 34 31 38 28 30 27 25 26 20 20 34 43 37 34 31 37 44 44 44 48 51 52 50 46 41 36 34 30 29 29 27 27 21 20 17 15 15 19 17 23 29 23 18 17
Wind_Direction
183 180 189 210 19 266 271 305 339 306 318 313 336 339 348 339 345 343 336 324 297 223 219 208 215 207 211 204 213 216 218 234 259 290 291 313 359 6 7 354 352 349 352 359 360 357 352 359 7
186 198 222 252 90 172 286 302 317 317 314 315 330 336 343 340 345 348 344 337 301 210 223 219 213 219 212 218 214 215 221 234 275 265 280 315 29 12 3 354 349 342 348 356 357 1 1 5 9
197 222 250 265 244 249 266 287 318 322 326 329 326 336 341 341 347 351 353 355 338 209 196 218 225 194 216 216 230 234 229 230 255 278 211 167 36 346 1 355 348 345 349 359 6 4 19 20 20
213 233 243 274 250 270 298 293 302 294 311 320 327 340 345 340 352 353 359 3 352 201 210 204 224 240 181 178 177 221 241 244 251 211 183 210 284 14 346 352 351 347 355 4 12 6 41 45 45
228 245 253 272 248 265 290 352 272 295 309 315 321 338 344 339 354 356 3 5 42 165 187 212 228 201 170 163 155 171 167 169 188 182 195 332 7 352 350 356 357 355 358 358 12 28 51 39 37
239 249 257 262 250 247 334 282 310 291 304 315 323 340 343 339 356 356 4 10 50 178 189 228 186 168 169 179 215 155 129 155 156 167 340 347 2 355 354 4 360 2 355 5 13 69 54 49 40
243 247 247 254 251 260 264 253 222 325 305 309 322 339 338 338 355 358 5 17 141 188 198 215 199 174 175 166 185 191 220 188 184 214 289 6 12 349 5 2 356 2 6 8 35 64 61 62 55
258 254 256 252 260 264 238 257 270 286 285 313 320 324 333 339 352 358 7 25 36 204 182 195 214 196 159 196 198 209 203 230 224 211 250 338 4 356 7 6 1 9 16 28 39 62 54 53 33
262 269 270 271 270 264 262 254 280 263 270 296 312 321 323 337 349 355 7 18 31 20 219 210 157 159 169 157 174 191 208 234 213 219 252 5 351 8 13 357 5 17 23 34 42 42 37 37 5
266 268 268 270 270 275 256 261 281 289 276 290 287 305 309 321 344 355 5 15 21 15 355 215 197 201 150 184 196 174 174 168 185 198 9 39 4 4 13 7 8 24 24 33 51 52 25 36 22
265 267 269 271 272 270 257 245 270 271 269 277 279 290 287 302 329 353 0 11 29 53 30 182 223 182 175 182 189 170 178 181 233 202 104 3 335 252 339 342 354 25 37 44 48 57 25 8 18
268 268 268 268 267 264 254 268 272 272 280 270 276 282 274 286 312 343 351 5 16 35 65 101 225 253 221 212 212 188 186 217 236 212 202 231 235 270 303 315 348 14 50 30 36 45 52 358 8
265 268 269 268 267 265 263 264 267 250 249 270 263 254 266 278 289 322 341 353 10 38 67 44 174 197 217 225 217 224 212 225 246 251 235 246 258 263 297 310 332 340 75 56 50 35 31 13 20
262 265 263 263 264 265 263 260 252 247 257 257 254 251 242 261 264 284 301 322 357 18 57 65 99 173 195 211 212 221 234 254 244 248 273 252 262 295 298 301 302 72 109 28 348 336 321 15 25
262 263 262 260 259 259 256 253 253 253 253 251 258 248 228 248 253 265 281 286 343 359 16 79 69 117 118 197 207 215 209 209 230 247 258 272 263 284 299 279 174 144 145 114 89 52 18 14 45
260 258 259 257 253 253 256 252 253 252 251 250 251 251 220 247 254 261 259 242 257 320 354 5 191 178 155 162 187 210 227 227 222 217 253 250 263 256 262 240 189 149 166 187 183 56 11 359 27
258 256 259 258 257 252 254 253 249 246 244 241 237 236 235 241 255 252 255 242 230 196 273 305 226 208 198 182 186 227 240 258 252 258 265 252 238 250 239 225 202 181 186 218 171 173 40 310 319
263 256 254 259 261 257 255 253 250 246 241 238 233 230 232 239 243 253 241 241 232 199 172 240 219 187 195 184 173 148 131 47 50 264 252 237 241 256 243 222 209 203 181 241 247 244 261 278 0
284 275 263 263 263 255 249 257 253 244 236 235 228 228 231 240 230 235 234 237 238 217 194 205 209 206 191 184 156 123 142 30 41 11 4 276 245 243 256 225 203 195 208 229 220 145 237 239 290
319 315 287 269 268 273 268 255 254 251 243 239 240 233 236 239 234 234 241 237 232 209 214 214 211 200 187 192 239 263 270 287 333 343 323 336 308 243 222 215 191 207 215 202 196 177 207 217 284
302 301 300 296 292 275 270 257 260 256 250 241 236 230 226 230 234 237 238 240 233 219 209 213 219 216 207 214 272 273 275 268 283 317 321 328 331 280 228 216 210 209 220 224 206 197 195 244 294
297 294 296 296 296 298 310 280 258 257 255 250 237 235 229 238 237 240 227 231 234 231 217 212 217 222 222 233 258 274 264 281 287 318 321 308 312 300 240 224 219 217 219 220 222 217 217 227 230
301 296 294 295 297 300 289 288 279 264 256 257 248 235 222 231 223 239 239 235 228 227 224 218 221 227 228 234 243 245 229 273 295 308 314 305 308 306 293 225 225 225 224 222 216 231 232 243 231
298 295 293 291 292 292 292 291 296 281 255 248 254 244 232 231 233 233 237 236 233 225 227 226 222 226 227 226 218 222 232 260 288 303 313 307 333 319 341 244 233 223 224 224 222 224 241 255 255
297 296 295 296 294 291 294 291 290 285 277 272 247 247 231 222 225 236 233 236 232 227 225 225 226 225 223 219 220 231 243 248 265 311 300 311 328 311 330 354 278 217 218 229 232 234 234 231 249
295 294 296 294 294 294 294 294 296 284 276 272 265 242 240 234 237 232 227 231 230 227 225 223 226 229 227 225 226 232 242 248 255 275 301 311 324 328 301 341 20 266 224 227 232 236 244 230 236
294 294 293 291 290 294 294 294 291 284 278 272 265 244 238 242 243 234 238 241 235 223 225 224 224 228 229 228 228 234 235 244 243 253 270 285 305 322 305 282 303 308 265 218 229 240 245 243 237
296 290 290 293 295 295 296 295 290 279 266 272 271 272 233 235 236 234 237 242 239 225 220 222 223 225 228 229 227 229 234 238 241 244 258 276 278 296 300 281 280 270 244 237 228 243 271 260 243
287 291 297 296 292 289 288 284 276 282 277 268 264 269 244 225 227 233 230 234 229 227 225 225 223 224 227 229 229 226 231 234 239 243 250 266 275 279 287 296 278 275 252 246 241 266 292 282 262
287 290 294 291 288 291 292 283 281 277 278 274 272 268 261 222 220 226 227 226 230 227 225 223 223 223 226 228 229 230 230 231 232 243 250 258 263 275 273 288 290 284 278 284 265 272 285 278 257
Height
11016 11016 11017 11018 11021 11020 11021 11019 11017 11014 11014 11013 11011 11008 11005 10998 10992 10983 10975 10967 10963 10967 10972 10974 10978 10980 10985 10989 10993 10998 11000 11001 11001 11001 11000 10999 10996 10993 10989 10986 10983 10980 10977 10972 10965 10956 10949 10944 10939
11016 11016 11017 11020 11020 11018 11019 11016 11014 11012 11011 11011 11010 11006 11003 10997 10991 10981 10971 10961 10957 10963 10968 10973 10975 10978 10984 10988 10992 10995 10997 10999 11000 10999 10998 10997 10996 10992 10988 10987 10984 10980 10976 10971 10965 10956 10948 10942 10938
11016 11017 11016 11016 11019 11016 11015 11012 11009 11008 11009 11007 11008 11005 10999 10994 10987 10977 10967 10958 10956 10959 10965 10970 10975 10978 10982 10987 10991 10992 10994 10997 10998 10997 10995 10995 10994 10990 10988 10987 10984 10979 10975 10969 10963 10953 10948 10944 10941
11015 11016 11016 11015 11014 11013 11012 11013 11011 11009 11009 11007 11005 11003 10996 10993 10985 10976 10966 10959 10957 10960 10965 10969 10973 10977 10981 10984 10988 10990 10993 10996 10997 10994 10993 10993 10992 10991 10989 10987 10984 10979 10973 10968 10961 10953 10949 10946 10943
11012 11012 11013 11012 11012 11012 11012 11013 11011 11008 11008 11005 11002 11001 10997 10992 10986 10977 10968 10963 10961 10964 10966 10970 10974 10976 10979 10984 10987 10989 10993 10996 10995 10992 10992 10993 10992 10992 10989 10987 10985 10980 10972 10965 10960 10955 10952 10949 10947
11012 11011 11012 11011 11011 11012 11014 11012 11008 11002 11007 11004 11000 10999 10996 10992 10988 10981 10973 10966 10964 10966 10967 10972 10976 10975 10978 10982 10988 10991 10994 10995 10995 10993 10992 10993 10992 10992 10989 10988 10984 10979 10970 10963 10960 10957 10956 10953 10951
11009 11009 11011 11010 11010 11011 11012 11008 11005 11002 11007 11003 10999 10996 10997 10992 10988 10983 10976 10971 10969 10970 10972 10974 10978 10978 10978 10983 10990 10993 10995 10995 10993 10992 10992 10992 10992 10991 10989 10987 10984 10979 10971 10966 10959 10961 10959 10954 10953
11007 11008 11009 11009 11010 11009 11009 11009 11006 11004 11002 11002 10999 10998 10997 10993 10989 10985 10979 10974 10972 10973 10972 10975 10978 10977 10981 10985 10991 10993 10995 10994 10991 10991 10991 10991 10991 10989 10989 10986 10984 10979 10974 10970 10970 10966 10962 10959 10958
11004 11005 11006 11007 11007 11007 11005 11003 11003 11002 11000 11000 10997 10996 10996 10996 10992 10988 10983 10977 10973 10973 10974 10976 10977 10980 10983 10985 10987 10990 10993 10994 10991 10990 10989 10990 10989 10989 10988 10987 10984 10981 10975 10972 10969 10968 10965 10960 10959
10999 10999 11000 11000 11000 10999 10999 11000 10999 10997 10999 10997 10996 10996 10994 10994 10992 10989 10985 10980 10976 10974 10974 10976 10978 10980 10983 10985 10986 10990 10992 10993 10992 10990 10989 10989 10988 10988 10989 10988 10985 10982 10976 10974 10971 10966 10965 10962 10959
10994 10994 10993 10994 10994 10994 10994 10996 10997 10993 10994 10997 10995 10993 10992 10992 10992 10989 10986 10983 10980 10977 10975 10976 10978 10981 10982 10984 10986 10989 10992 10992 10991 10989 10988 10988 10987 10988 10987 10988 10987 10982 10977 10975 10970 10966 10966 10964 10962
10987 10987 10987 10987 10988 10988 10990 10992 10994 10993 10990 10993 10992 10989 10989 10989 10989 10990 10986 10984 10981 10978 10977 10978 10979 10981 10982 10983 10984 10986 10989 10989 10989 10988 10989 10988 10987 10987 10986 10987 10987 10984 10979 10978 10971 10969 10968 10968 10965
10980 10979 10981 10981 10981 10980 10984 10986 10988 10988 10984 10985 10988 10987 10986 10987 10987 10987 10986 10984 10981 10980 10978 10977 10979 10978 10980 10983 10981 10983 10987 10988 10988 10988 10989 10987 10984 10986 10985 10985 10985 10985 10983 10981 10977 10974 10974 10971 10968
10975 10969 10971 10973 10972 10971 10974 10978 10981 10981 10979 10978 10980 10983 10983 10984 10986 10986 10986 10984 10980 10979 10979 10978 10978 10978 10978 10978 10980 10982 10987 10987 10987 10987 10987 10985 10985 10984 10983 10983 10984 10984 10983 10982 10980 10978 10973 10972 10968
10964 10961 10963 10965 10962 10963 10965 10966 10970 10973 10976 10976 10972 10977 10980 10979 10981 10984 10983 10983 10981 10979 10978 10978 10978 10977 10977 10977 10979 10981 10986 10986 10987 10987 10985 10982 10983 10984 10982 10982 10985 10985 10984 10983 10980 10978 10975 10973 10969
10955 10952 10951 10953 10952 10955 10954 10957 10960 10964 10968 10971 10970 10970 10973 10975 10976 10979 10982 10983 10980 10979 10977 10976 10977 10978 10978 10978 10980 10982 10984 10986 10984 10984 10983 10982 10982 10982 10982 10982 10984 10985 10984 10981 10979 10977 10978 10975 10973
10945 10946 10943 10943 10942 10946 10945 10946 10950 10955 10960 10961 10963 10964 10966 10970 10972 10974 10977 10979 10979 10979 10977 10976 10975 10977 10978 10978 10980 10982 10983 10982 10982 10980 10980 10979 10979 10981 10981 10982 10983 10984 10984 10978 10979 10976 10978 10977 10976
10939 10940 10938 10935 10935 10937 10938 10937 10941 10945 10949 10952 10955 10958 10958 10962 10966 10969 10971 10973 10976 10977 10976 10975 10975 10977 10978 10978 10980 10981 10982 10981 10979 10979 10979 10978 10976 10979 10979 10982 10984 10984 10984 10981 10978 10976 10976 10978 10978
10934 10933 10933 10929 10927 10929 10933 10931 10933 10935 10939 10943 10948 10954 10955 10957 10959 10961 10966 10969 10973 10974 10974 10974 10975 10976 10977 10978 10979 10979 10980 10979 10977 10977 10977 10977 10974 10975 10977 10980 10982 10981 10982 10980 10980 10976 10976 10978 10979
10930 10929 10928 10926 10922 10923 10927 10928 10926 10927 10930 10937 10941 10946 10948 10948 10953 10955 10957 10962 10968 10971 10970 10972 10973 10975 10976 10977 10977 10978 10978 10977 10976 10976 10976 10976 10973 10971 10975 10977 10979 10980 10980 10981 10982 10979 10979 10979 10979
10928 10926 10925 10924 10922 10922 10921 10924 10921 10921 10923 10926 10929 10934 10939 10941 10942 10945 10950 10955 10959 10965 10966 10968 10970 10972 10974 10974 10975 10976 10976 10976 10975 10974 10974 10974 10974 10972 10975 10975 10976 10979 10980 10979 10981 10979 10981 10980 10978
10925 10922 10921 10920 10919 10919 10917 10918 10918 10914 10917 10919 10922 10924 10929 10934 10936 10938 10942 10947 10952 10957 10962 10963 10965 10968 10970 10971 10973 10973 10975 10975 10974 10974 10973 10974 10974 10974 10971 10972 10973 10976 10977 10977 10979 10980 10981 10980 10980
10920 10919 10917 10916 10914 10914 10914 10912 10913 10912 10913 10912 10913 10918 10921 10926 10927 10928 10931 10938 10943 10949 10953 10956 10959 10962 10965 10968 10970 10971 10973 10973 10974 10974 10973 10973 10972 10970 10969 10969 10971 10973 10975 10975 10976 10977 10979 10979 10979
10916 10914 10913 10911 10910 10908 10909 10908 10910 10908 10908 10908 10905 10906 10912 10917 10920 10924 10926 10931 10934 10941 10945 10949 10952 10956 10959 10964 10967 10969 10970 10972 10972 10972 10971 10970 10969 10968 10967 10967 10966 10970 10972 10973 10974 10976 10975 10977 10977
10910 10908 10907 10906 10904 10902 10902 10903 10903 10903 10902 10901 10900 10896 10902 10909 10914 10917 10918 10922 10926 10931 10936 10941 10946 10950 10954 10959 10963 10965 10967 10970 10970 10970 10969 10968 10967 10965 10965 10965 10964 10965 10970 10972 10975 10976 10977 10976 10975
10903 10900 10900 10899 10898 10896 10894 10895 10895 10895 10896 10893 10892 10894 10891 10896 10901 10906 10909 10912 10918 10920 10925 10931 10936 10942 10947 10953 10958 10962 10964 10966 10968 10969 10967 10966 10965 10965 10965 10963 10962 10963 10965 10968 10971 10974 10976 10977 10977
10896 10893 10892 10890 10890 10889 10887 10887 10887 10886 10886 10885 10883 10882 10881 10883 10888 10895 10899 10902 10908 10911 10914 10920 10926 10932 10938 10944 10951 10957 10961 10963 10966 10966 10966 10965 10965 10964 10963 10963 10963 10963 10964 10966 10968 10970 10971 10972 10973
10883 10884 10884 10883 10880 10881 10879 10878 10877 10877 10877 10876 10874 10872 10872 10877 10879 10884 10889 10892 10897 10902 10905 10909 10917 10922 10927 10935 10941 10949 10954 10957 10960 10962 10961 10962 10962 10963 10963 10962 10961 10962 10963 10965 10966 10967 10967 10967 10967
10875 10871 10875 10874 10870 10870 10868 10866 10865 10867 10868 10867 10866 10864 10863 10867 10870 10872 10878 10881 10887 10892 10897 10900 10906 10912 10918 10924 10931 10938 10945 10950 10954 10956 10957 10956 10958 10960 10960 10960 10960 10959 10961 10961 10962 10961 10962 10962 10961
10865 10867 10863 10861 10859 10861 10860 10851 10858 10854 10854 10854 10852 10855 10855 10859 10862 10864 10869 10873 10877 10882 10888 10892 10896 10902 10909 10915 10922 10930 10937 10942 10947 10950 10951 10952 10954 10956 10958 10957 10957 10957 10956 10957 10957 10956 10955 10954 10954